EDT,Max TemperatureF,Mean TemperatureF,Min TemperatureF,Max Dew PointF,MeanDew PointF,Min DewpointF,Max Humidity, Mean Humidity, Min Humidity, Max Sea Level PressureIn, Mean Sea Level PressureIn, Min Sea Level PressureIn, Max VisibilityMiles, Mean VisibilityMiles, Min VisibilityMiles, Max Wind SpeedMPH, Mean Wind SpeedMPH, Max Gust SpeedMPH,PrecipitationIn, CloudCover, Events, WindDirDegrees
2012-10-1,66,54,41,48,42,37,100,69,40,29.96,29.90,29.81,10,9,1,10,3,,0.00,1,Rain,72
2012-10-2,62,56,51,59,53,48,94,86,77,29.91,29.84,29.79,10,8,2,13,7,18,0.11,8,Rain,58
2012-10-3,62,58,55,59,54,50,100,84,68,30.08,30.00,29.91,10,7,1,8,1,,0.02,7,Rain,193
2012-10-4,77,65,53,54,50,45,88,62,32,30.15,30.09,30.05,10,10,10,14,5,22,0.00,3,,214
2012-10-5,66,54,41,55,46,37,94,84,64,30.13,30.08,30.03,10,9,5,18,7,23,0.35,7,Rain,254
2012-10-6,50,42,33,37,33,32,93,72,50,30.15,30.08,30.02,10,10,10,16,7,23,0.00,4,,263
2012-10-7,50,44,39,37,35,30,87,70,47,30.18,30.13,30.10,10,10,10,14,4,18,0.00,8,,266
2012-10-8,53,42,30,36,30,23,100,71,33,30.23,30.17,30.10,10,9,7,7,1,,0.00,1,,206
2012-10-9,60,46,33,37,33,30,93,59,34,30.12,30.01,29.88,10,10,10,15,4,22,0.00,0,,205
2012-10-10,51,42,33,43,34,25,93,68,40,30.20,30.02,29.85,10,10,10,20,9,30,0.06,5,Rain,260
2012-10-11,60,46,32,34,30,27,93,56,27,30.23,30.17,30.10,10,10,10,17,6,25,0.00,0,,220
2012-10-12,53,44,35,37,29,19,81,56,26,30.45,30.35,30.18,10,10,10,14,7,20,0.00,2,,34
2012-10-13,64,50,35,61,42,30,94,76,54,30.37,30.13,29.92,10,9,3,10,4,20,0.12,4,Rain,147
2012-10-14,71,62,51,61,57,48,88,77,53,29.91,29.71,29.51,10,9,4,22,11,41,0.06,6,Rain,201
2012-10-15,50,44,39,46,42,36,93,79,66,29.98,29.87,29.72,10,8,2,15,9,22,0.00,7,Rain,274
2012-10-16,62,47,32,41,36,30,100,68,37,30.00,29.89,29.73,10,8,1,9,2,,0.00,1,,163
2012-10-17,73,62,51,54,47,41,88,62,31,29.73,29.65,29.49,10,9,3,20,5,31,0.70,4,Rain,178
2012-10-18,60,51,42,54,40,28,94,62,31,29.65,29.52,29.38,10,10,5,16,8,29,0.45,5,Rain,201
2012-10-19,50,46,42,45,42,37,93,86,76,29.62,29.56,29.53,10,9,3,9,3,,0.17,8,Rain,187
2012-10-20,55,50,44,43,41,39,93,79,54,29.95,29.77,29.63,10,10,5,14,7,23,0.00,8,,238
2012-10-21,62,48,33,45,41,34,100,73,51,30.12,30.06,29.95,10,9,2,8,3,,0.00,0,,191
2012-10-22,71,56,42,57,49,41,100,75,49,30.08,30.04,29.97,10,8,3,8,1,16,0.00,3,Rain,195
2012-10-23,64,62,59,61,56,52,94,80,64,30.02,29.98,29.94,10,10,7,12,5,18,0.02,5,Rain,216
2012-10-24,77,66,55,57,55,52,94,67,47,30.04,30.01,29.98,10,10,7,10,3,16,0.00,2,Rain,193
2012-10-25,77,66,55,55,52,50,82,60,41,30.00,29.94,29.86,10,10,10,15,6,28,0.00,1,,190
2012-10-26,68,54,41,54,37,32,93,69,50,30.24,30.15,29.87,10,10,4,18,11,31,0.04,4,Rain,332
2012-10-27,51,43,35,32,30,23,87,63,33,30.23,30.19,30.14,10,10,7,14,8,18,0.00,0,,352
2012-10-28,46,40,35,32,30,28,81,67,53,30.20,30.16,30.12,10,10,10,17,9,26,0.00,3,,7
2012-10-29,44,40,35,27,23,14,70,52,29,30.14,30.05,29.80,10,10,10,22,14,33,0.00,0,,340
2012-10-30,41,38,35,36,32,21,93,79,45,29.78,29.61,29.55,10,8,4,23,18,36,0.02,8,Rain-Snow,323
2012-10-31,42,38,35,37,35,34,93,83,70,29.76,29.67,29.61,10,9,3,17,12,29,0.00,8,Rain,303